STARLINK-3230, 50845

Orbit data source: Space-Track

STARLINK-3230, 50845 is a payload satellite owned by SpaceX/Seattle (US) in LEO that was launched on Thu, 06 Jan 2022 UTC via an FALCON 9 launch vehicle from the Air Force Eastern Test Range (AFETR). Payload-class satellites include a variety of spacecraft equipped with specific instruments for various scientific and technological missions. These include communications satellites like Starlink; space stations such as the ISS; scientific satellites like the Hubble; Earth observation satellites from companies like Planet Labs, Umbra, and HawkEye 360; GPS; miniature CubeSats for education and research; and military/defense satellites.

Loading next visibility...
Identifier
50845, 2022-001AU
Orbit
LEO
Country
Flag of USUS
Related business
Manufacturer
SpaceX/Seattle
Mission
Operational Commercial Communications
Bus & Motor
STARLINK, Unknown motor
Mass
297 kg wet, ~275 kg dry
Launch date (UTC)
2022-01-06 (4 years ago)
Launch vehicle
FALCON 9
Launch site
Air Force Eastern Test Range (AFETR)
Object type
Payload
Rocket body
Debris
Shape & HBR
Box + 1 Pan, 10.1 m
Radar Cross Section
13.562 m², Large (>1 m²)

Expand to show TLE details & history
Last TLE update: 2 days ago

TLE from 2 days ago
0 STARLINK-3230
1 50845U 22001AU  26171.41668980  .00001175  00000-0  81114-4 0  9999
2 50845  53.1592  77.7792 0002355  65.6047 162.3396 15.13717200  5823
Epoch: 2026-06-20T10:00Z
TLE epoch observation values (Epoch: 2026-06-20T10:00:01.998Z)
Latitude
-36.66892°
Longitude
-127.16725°
Altitude
538.229 km
Speed
7.592 km/s
True Right ascension
19h 25m 53s
True Declination
-36° 29' 57"
Sunlit
Object was in full shadow at epoch
Visualization orbit readout
Latitude
Unknown
Longitude
Unknown
Altitude
Unknown
Speed
Unknown
Apparent Right ascension
Unknown
Apparent Declination
Unknown
Sunlit
N/A
Visualization observer readout
Local Sidereal Time
21:23:35
Azimuth
Unknown
Elevation
Unknown
Doppler factor
Unknown
Orbital elements
Apogee altitude
526.756 km
Perigee altitude
523.505 km
Semi-major axis
6,903.268 km
Eccentricity
0.00024
Inclination
53.1592°
RAAN
77.7792°
Arg. of periapsis
65.6047°
True anomaly
162.34778°
Mean anomaly
162.3396°
Eccentric anomaly
162.34369°
Mean motion
3.78409 °/min
Orbital period
95.14 mins
BSTAR
0.000081114
Loading maneuver chart data...
Computing Atmospheric mass density...
Loading historical data...
Loading historical data...
Loading historical data...
Loading historical data...
Loading historical data...
Loading historical data...
Loading historical data...

Documentation

Showing up to 5 results
|